Location: Home
(42.5358°N, 72.7383°W)
Time: 16:40:30
(UTC-05:00)

A-11 Canister half - Pass Details

Date: 07 December 2021
Orbit: 1516 x 1684 km, 47.2° (Epoch: 18 January)

Event Time Altitude Azimuth Distance (km) Brightness Sun altitude
Rises 13:16:35 0° 295° (WNW) 4,902 11.6 21.3°
Reaches altitude 10° 13:20:07 10° 287° (WNW) 3,928 11.3 21.0°
Maximum altitude 13:28:41 33° 228° (SW) 2,554 11.7 20.3°
Drops below altitude 10° 13:37:19 10° 169° (S) 3,930 12.1 19.6°
Sets 13:40:52 0° 160° (SSE) 4,906 12.3 19.3°
